This is the latest recevied weather packets stored in our database for station/object XW7RMR. If no packets are shown the sender has not sent any weather packets the latest 10 day(s).
| Time | Temp. | Humidity | Pressure | Rain* | Wind** | Luminosity | Snow |
|---|---|---|---|---|---|---|---|
| 1777384794 | 8.89° C | 87% | 1021.7 hPa | 0 mm | - | 30 W/m² | - |
| 1777384490 | 8.89° C | 88% | 1021.5 hPa | 0 mm | - | 22 W/m² | - |
| 1777384185 | 8.89° C | 87% | 1021.5 hPa | 0 mm | - | 15 W/m² | - |
| 1777383882 | 8.89° C | 87% | 1021.4 hPa | 0 mm | - | 12 W/m² | - |
| 1777383577 | 8.89° C | 87% | 1021.5 hPa | 0 mm | - | 11 W/m² | - |
| 1777383274 | 8.89° C | 87% | 1021.5 hPa | 0 mm | - | 11 W/m² | - |
| 1777382971 | 8.89° C | 87% | 1021.2 hPa | 0 mm | - | 9 W/m² | - |
| 1777382666 | 8.89° C | 87% | 1021.1 hPa | 0 mm | - | 8 W/m² | - |
| 1777382362 | 8.89° C | 87% | 1021.3 hPa | 0 mm | - | 5 W/m² | - |
| 1777382059 | 8.89° C | 86% | 1021.4 hPa | 0 mm | - | 3 W/m² | - |
| 1777381755 | 8.89° C | 87% | 1021.2 hPa | 0 mm | - | 2 W/m² | - |
| 1777381449 | 8.89° C | 87% | 1021.2 hPa | 0 mm | - | 1 W/m² | - |
| 1777381145 | 8.89° C | 88% | 1021 hPa | 0 mm | - | 1 W/m² | - |
| 1777380843 | 8.89° C | 88% | 1021.2 hPa | 0 mm | - | 0 W/m² | - |
| 1777380540 | 8.89° C | 88% | 1021.1 hPa | 0 mm | - | 0 W/m² | - |
| 1777380236 | 8.89° C | 88% | 1020.9 hPa | 0 mm | - | 0 W/m² | - |
| 1777379932 | 8.89° C | 89% | 1020.9 hPa | 0 mm | - | 0 W/m² | - |
| 1777379628 | 8.33° C | 89% | 1020.9 hPa | 0 mm | - | 0 W/m² | - |
| 1777379324 | 8.33° C | 89% | 1020.8 hPa | 0 mm | - | 0 W/m² | - |
| 1777379023 | 8.33° C | 89% | 1020.9 hPa | 0 mm | - | 0 W/m² | - |
| 1777378720 | 8.33° C | 89% | 1020.8 hPa | 0 mm | - | 0 W/m² | - |
| 1777378417 | 8.33° C | 89% | 1020.9 hPa | 0 mm | - | 0 W/m² | - |
| 1777378111 | 8.89° C | 89% | 1020.9 hPa | 0 mm | - | 0 W/m² | - |
| 1777377806 | 8.89° C | 89% | 1020.9 hPa | 0 mm | - | 0 W/m² | - |
| 1777377500 | 8.89° C | 89% | 1020.7 hPa | 0 mm | - | 0 W/m² | - |
* Rain latest hour (hover to see other rain measurements)
** Current wind speed in m/s (hover to see current wind gust speed)